Time,TemperatureF,DewpointF,PressureIn,WindDirection,WindDirectionDegrees,WindSpeedMPH,WindSpeedGustMPH,Humidity,HourlyPrecipIn,Conditions,Clouds,dailyrainin,SoftwareType,DateUTC
2013-03-20 00:03:00,42.7,40.3,29.65,South,169,0.0,0.0,91,0.16,,,0.38,Wunderground v.1.15,2013-03-20 07:03:00,
2013-03-20 00:08:00,42.6,40.2,29.66,South,169,0.0,0.0,91,0.13,,,0.39,Wunderground v.1.15,2013-03-20 07:08:00,
2013-03-20 00:14:00,42.6,40.2,29.66,South,169,0.0,0.0,91,0.10,,,0.40,Wunderground v.1.15,2013-03-20 07:14:00,
2013-03-20 00:20:00,42.7,40.3,29.66,South,171,0.0,0.0,91,0.15,,,0.41,Wunderground v.1.15,2013-03-20 07:20:00,
2013-03-20 00:25:00,42.7,40.3,29.66,SSW,199,0.0,0.0,91,0.16,,,0.43,Wunderground v.1.15,2013-03-20 07:25:00,
2013-03-20 00:31:00,42.7,40.5,29.65,SSW,199,0.0,0.0,92,0.20,,,0.45,Wunderground v.1.15,2013-03-20 07:31:00,
2013-03-20 00:36:00,42.7,40.5,29.65,SSW,199,0.0,0.0,92,0.16,,,0.46,Wunderground v.1.15,2013-03-20 07:36:00,
2013-03-20 00:42:00,42.7,40.5,29.65,SSW,199,0.0,0.0,92,0.20,,,0.48,Wunderground v.1.15,2013-03-20 07:42:00,
2013-03-20 00:48:00,42.9,40.7,29.65,SSW,199,0.0,0.0,92,0.20,,,0.50,Wunderground v.1.15,2013-03-20 07:48:00,
2013-03-20 00:53:00,43.1,40.9,29.65,SSW,199,0.0,0.0,92,0.26,,,0.52,Wunderground v.1.15,2013-03-20 07:53:00,
2013-03-20 00:59:00,43.0,40.8,29.64,SSW,199,0.0,0.0,92,0.20,,,0.54,Wunderground v.1.15,2013-03-20 07:59:00,
2013-03-20 01:04:00,42.9,40.7,29.64,South,182,0.0,0.0,92,0.15,,,0.55,Wunderground v.1.15,2013-03-20 08:04:00,
2013-03-20 01:09:00,42.9,41.0,29.64,South,180,0.0,0.0,93,0.17,,,0.57,Wunderground v.1.15,2013-03-20 08:09:00,
2013-03-20 01:15:00,42.8,40.9,29.63,South,180,0.0,0.0,93,0.18,,,0.58,Wunderground v.1.15,2013-03-20 08:15:00,
2013-03-20 01:20:00,42.9,41.0,29.63,SSE,165,0.0,0.0,93,0.16,,,0.60,Wunderground v.1.15,2013-03-20 08:20:00,
2013-03-20 01:26:00,43.0,41.1,29.63,South,184,0.0,1.0,93,0.16,,,0.61,Wunderground v.1.15,2013-03-20 08:26:00,
2013-03-20 01:32:00,43.0,41.1,29.63,SSW,201,0.0,0.0,93,0.10,,,0.62,Wunderground v.1.15,2013-03-20 08:32:00,
2013-03-20 01:37:00,43.2,41.3,29.62,SSW,201,0.0,0.0,93,0.08,,,0.63,Wunderground v.1.15,2013-03-20 08:37:00,
2013-03-20 01:42:00,43.3,41.4,29.62,SSW,198,0.0,0.0,93,0.08,,,0.63,Wunderground v.1.15,2013-03-20 08:42:00,
2013-03-20 01:47:00,43.3,41.4,29.61,SSW,197,0.0,0.0,93,0.09,,,0.64,Wunderground v.1.15,2013-03-20 08:47:00,
2013-03-20 01:53:00,43.5,41.6,29.61,SSW,197,0.0,0.0,93,0.07,,,0.65,Wunderground v.1.15,2013-03-20 08:53:00,
2013-03-20 01:59:00,43.7,41.8,29.60,SSW,197,0.0,0.0,93,0.07,,,0.65,Wunderground v.1.15,2013-03-20 08:59:00,
2013-03-20 02:04:00,43.7,41.8,29.60,SSW,197,0.0,0.0,93,0.05,,,0.65,Wunderground v.1.15,2013-03-20 09:04:00,
2013-03-20 02:09:00,43.8,42.2,29.60,SSW,197,0.0,0.0,94,0.05,,,0.66,Wunderground v.1.15,2013-03-20 09:09:00,
2013-03-20 02:14:00,43.8,41.9,29.60,SSW,197,0.0,0.0,93,0.05,,,0.66,Wunderground v.1.15,2013-03-20 09:14:00,
2013-03-20 02:19:00,44.0,42.4,29.59,SSW,197,0.0,0.0,94,0.04,,,0.66,Wunderground v.1.15,2013-03-20 09:19:00,
2013-03-20 02:24:00,44.1,42.5,29.59,SSW,197,0.0,0.0,94,0.00,,,0.66,Wunderground v.1.15,2013-03-20 09:24:00,
2013-03-20 02:29:00,44.5,42.9,29.58,South,188,0.0,0.0,94,0.00,,,0.66,Wunderground v.1.15,2013-03-20 09:29:00,
2013-03-20 02:34:00,45.0,43.4,29.58,SSE,156,4.0,4.0,94,0.00,,,0.66,Wunderground v.1.15,2013-03-20 09:34:00,
2013-03-20 02:39:00,45.4,43.8,29.57,South,184,0.0,1.0,94,0.00,,,0.67,Wunderground v.1.15,2013-03-20 09:39:00,
2013-03-20 02:44:00,45.8,44.2,29.57,SSE,162,3.0,7.0,94,0.00,,,0.67,Wunderground v.1.15,2013-03-20 09:44:00,
2013-03-20 02:49:00,46.1,44.2,29.56,SSE,154,0.0,2.0,93,0.00,,,0.67,Wunderground v.1.15,2013-03-20 09:49:00,
2013-03-20 02:54:00,46.3,44.1,29.56,SSE,150,1.0,5.0,92,0.00,,,0.67,Wunderground v.1.15,2013-03-20 09:54:00,
2013-03-20 02:59:00,46.3,44.1,29.56,SSE,161,2.0,2.0,92,0.00,,,0.67,Wunderground v.1.15,2013-03-20 09:59:00,
2013-03-20 03:04:00,46.4,43.9,29.56,SSE,160,1.0,3.0,91,0.00,,,0.67,Wunderground v.1.15,2013-03-20 10:04:00,
2013-03-20 03:09:00,46.5,44.0,29.56,SSE,153,0.0,1.0,91,0.00,,,0.67,Wunderground v.1.15,2013-03-20 10:09:00,
2013-03-20 03:14:00,46.7,44.2,29.56,South,179,0.0,2.0,91,0.00,,,0.67,Wunderground v.1.15,2013-03-20 10:14:00,
2013-03-20 03:19:00,46.8,44.0,29.56,SSE,152,3.0,3.0,90,0.00,,,0.67,Wunderground v.1.15,2013-03-20 10:19:00,
2013-03-20 03:24:00,46.9,44.1,29.56,ESE,123,1.0,6.0,90,0.00,,,0.67,Wunderground v.1.15,2013-03-20 10:24:00,
2013-03-20 03:29:00,46.8,43.7,29.55,SE,125,3.0,4.0,89,0.00,,,0.67,Wunderground v.1.15,2013-03-20 10:29:00,
2013-03-20 03:34:00,46.3,43.2,29.55,SSE,155,0.0,6.0,89,0.00,,,0.67,Wunderground v.1.15,2013-03-20 10:34:00,
2013-03-20 03:39:00,46.1,43.0,29.55,SE,129,0.0,1.0,89,0.00,,,0.67,Wunderground v.1.15,2013-03-20 10:39:00,
2013-03-20 03:44:00,46.0,43.2,29.55,SE,146,0.0,5.0,90,0.00,,,0.67,Wunderground v.1.15,2013-03-20 10:44:00,
2013-03-20 03:49:00,46.0,43.2,29.54,SE,143,0.0,1.0,90,0.00,,,0.67,Wunderground v.1.15,2013-03-20 10:49:00,
2013-03-20 03:54:00,46.1,43.3,29.54,South,175,0.0,1.0,90,0.00,,,0.67,Wunderground v.1.15,2013-03-20 10:54:00,
2013-03-20 03:59:00,46.2,43.1,29.54,South,175,0.0,0.0,89,0.00,,,0.67,Wunderground v.1.15,2013-03-20 10:59:00,
2013-03-20 04:04:00,46.3,43.2,29.54,South,175,0.0,0.0,89,0.00,,,0.67,Wunderground v.1.15,2013-03-20 11:04:00,
2013-03-20 04:09:00,46.4,43.3,29.54,South,175,0.0,0.0,89,0.00,,,0.67,Wunderground v.1.15,2013-03-20 11:09:00,
2013-03-20 04:14:00,46.6,43.5,29.53,South,190,0.0,0.0,89,0.00,,,0.67,Wunderground v.1.15,2013-03-20 11:14:00,
2013-03-20 04:19:00,46.7,43.3,29.53,SSW,200,0.0,0.0,88,0.00,,,0.67,Wunderground v.1.15,2013-03-20 11:19:00,
2013-03-20 04:24:00,46.7,43.3,29.53,SSW,202,0.0,1.0,88,0.00,,,0.67,Wunderground v.1.15,2013-03-20 11:24:00,
2013-03-20 04:30:00,46.7,43.3,29.52,SSW,198,0.0,0.0,88,0.20,,,0.69,Wunderground v.1.15,2013-03-20 11:30:00,
2013-03-20 04:35:00,46.6,43.2,29.52,SSE,160,1.0,3.0,88,0.26,,,0.71,Wunderground v.1.15,2013-03-20 11:35:00,
2013-03-20 04:40:00,46.4,43.3,29.52,SSE,157,0.0,0.0,89,0.11,,,0.71,Wunderground v.1.15,2013-03-20 11:40:00,
2013-03-20 04:45:00,46.2,43.1,29.52,SSE,157,0.0,2.0,89,0.06,,,0.71,Wunderground v.1.15,2013-03-20 11:45:00,
2013-03-20 04:50:00,46.1,43.0,29.52,SSE,161,0.0,0.0,89,0.19,,,0.01,Wunderground v.1.15,2013-03-20 11:50:00,
2013-03-20 04:55:00,45.9,43.1,29.51,SSE,161,0.0,0.0,90,0.32,,,0.03,Wunderground v.1.15,2013-03-20 11:55:00,
2013-03-20 05:00:00,45.8,43.0,29.51,SSE,165,0.0,0.0,90,0.22,,,0.05,Wunderground v.1.15,2013-03-20 12:00:00,
2013-03-20 05:05:00,45.7,43.2,29.51,SSE,165,0.0,0.0,91,0.32,,,0.06,Wunderground v.1.15,2013-03-20 12:05:00,
2013-03-20 05:10:00,45.6,43.1,29.51,SSE,165,0.0,0.0,91,0.46,,,0.10,Wunderground v.1.15,2013-03-20 12:10:00,
2013-03-20 05:15:00,45.5,43.0,29.50,SSE,165,0.0,0.0,91,0.33,,,0.12,Wunderground v.1.15,2013-03-20 12:15:00,
2013-03-20 05:20:00,45.7,43.5,29.50,SSE,165,0.0,0.0,92,0.14,,,0.13,Wunderground v.1.15,2013-03-20 12:20:00,
2013-03-20 05:25:00,45.5,43.3,29.50,SSE,165,0.0,0.0,92,0.08,,,0.13,Wunderground v.1.15,2013-03-20 12:25:00,
2013-03-20 05:30:00,45.5,43.3,29.49,SSE,165,0.0,0.0,92,0.05,,,0.13,Wunderground v.1.15,2013-03-20 12:30:00,
2013-03-20 05:35:00,45.4,43.5,29.49,SSE,165,0.0,0.0,93,0.04,,,0.14,Wunderground v.1.15,2013-03-20 12:35:00,
2013-03-20 05:40:00,45.3,43.4,29.49,SSE,165,0.0,0.0,93,0.30,,,0.16,Wunderground v.1.15,2013-03-20 12:40:00,
2013-03-20 05:45:00,45.4,43.5,29.49,SSE,165,0.0,0.0,93,0.27,,,0.18,Wunderground v.1.15,2013-03-20 12:45:00,
2013-03-20 05:50:00,45.6,43.7,29.49,SSE,165,0.0,0.0,93,0.30,,,0.21,Wunderground v.1.15,2013-03-20 12:50:00,
2013-03-20 05:55:00,45.7,43.8,29.48,SE,128,0.0,4.0,93,0.30,,,0.23,Wunderground v.1.15,2013-03-20 12:55:00,
2013-03-20 06:01:00,45.6,43.7,29.48,SE,127,1.0,1.0,93,0.10,,,0.24,Wunderground v.1.15,2013-03-20 13:01:00,
2013-03-20 06:06:00,45.7,44.1,29.48,SE,127,0.0,1.0,94,0.09,,,0.24,Wunderground v.1.15,2013-03-20 13:06:00,
2013-03-20 06:11:00,45.8,44.2,29.48,SE,129,0.0,0.0,94,0.26,,,0.26,Wunderground v.1.15,2013-03-20 13:11:00,
2013-03-20 06:16:00,45.8,44.2,29.48,SE,129,0.0,0.0,94,0.23,,,0.28,Wunderground v.1.15,2013-03-20 13:16:00,
2013-03-20 06:21:00,46.0,44.4,29.48,SE,129,0.0,0.0,94,0.13,,,0.29,Wunderground v.1.15,2013-03-20 13:21:00,
2013-03-20 06:26:00,46.1,44.5,29.48,SE,129,0.0,0.0,94,0.10,,,0.29,Wunderground v.1.15,2013-03-20 13:26:00,
2013-03-20 06:32:00,46.1,44.5,29.47,SE,130,0.0,0.0,94,0.06,,,0.30,Wunderground v.1.15,2013-03-20 13:32:00,
2013-03-20 06:37:00,46.2,44.6,29.47,SE,142,0.0,0.0,94,0.06,,,0.30,Wunderground v.1.15,2013-03-20 13:37:00,
2013-03-20 06:42:00,46.3,44.7,29.47,ESE,122,10.0,10.0,94,0.05,,,0.30,Wunderground v.1.15,2013-03-20 13:42:00,
2013-03-20 06:47:00,46.0,44.1,29.46,SE,146,3.0,10.0,93,0.05,,,0.31,Wunderground v.1.15,2013-03-20 13:47:00,
2013-03-20 06:52:00,45.9,44.3,29.46,SE,134,0.0,6.0,94,0.05,,,0.31,Wunderground v.1.15,2013-03-20 13:52:00,
2013-03-20 06:57:00,46.4,44.8,29.46,SE,128,4.0,6.0,94,0.05,,,0.32,Wunderground v.1.15,2013-03-20 13:57:00,
2013-03-20 07:02:00,47.0,45.4,29.46,SE,140,3.0,5.0,94,0.13,,,0.33,Wunderground v.1.15,2013-03-20 14:02:00,
2013-03-20 07:07:00,47.3,45.7,29.45,SE,144,3.0,5.0,94,0.12,,,0.34,Wunderground v.1.15,2013-03-20 14:07:00,
2013-03-20 07:12:00,47.6,45.7,29.46,SSW,196,0.0,2.0,93,0.10,,,0.34,Wunderground v.1.15,2013-03-20 14:12:00,
2013-03-20 07:17:00,47.9,46.0,29.45,SSE,159,0.0,5.0,93,0.05,,,0.34,Wunderground v.1.15,2013-03-20 14:17:00,
2013-03-20 07:22:00,48.2,46.3,29.45,SSE,154,5.0,5.0,93,0.05,,,0.35,Wunderground v.1.15,2013-03-20 14:22:00,
2013-03-20 07:27:00,48.3,46.1,29.46,SE,139,3.0,6.0,92,0.09,,,0.36,Wunderground v.1.15,2013-03-20 14:27:00,
2013-03-20 07:32:00,48.6,46.4,29.45,SSW,200,4.0,9.0,92,0.10,,,0.37,Wunderground v.1.15,2013-03-20 14:32:00,
2013-03-20 07:37:00,48.7,46.2,29.46,SSE,155,3.0,11.0,91,0.22,,,0.38,Wunderground v.1.15,2013-03-20 14:37:00,
2013-03-20 07:42:00,48.7,46.2,29.46,SE,144,3.0,7.0,91,0.14,,,0.39,Wunderground v.1.15,2013-03-20 14:42:00,
2013-03-20 07:47:00,48.4,45.6,29.46,SSE,159,1.0,7.0,90,0.10,,,0.40,Wunderground v.1.15,2013-03-20 14:47:00,
2013-03-20 07:52:00,48.2,45.7,29.45,SSE,167,4.0,10.0,91,0.15,,,0.41,Wunderground v.1.15,2013-03-20 14:52:00,
2013-03-20 07:57:00,48.3,45.8,29.45,South,182,4.0,10.0,91,0.07,,,0.41,Wunderground v.1.15,2013-03-20 14:57:00,
2013-03-20 08:02:00,48.2,45.4,29.46,SSW,194,3.0,7.0,90,0.04,,,0.41,Wunderground v.1.15,2013-03-20 15:02:00,
2013-03-20 08:07:00,48.1,45.3,29.46,South,182,3.0,7.0,90,0.00,,,0.41,Wunderground v.1.15,2013-03-20 15:07:00,
2013-03-20 08:12:00,48.1,45.3,29.46,South,170,0.0,9.0,90,0.00,,,0.41,Wunderground v.1.15,2013-03-20 15:12:00,
2013-03-20 08:17:00,48.2,45.4,29.46,SSW,213,5.0,11.0,90,0.00,,,0.41,Wunderground v.1.15,2013-03-20 15:17:00,
2013-03-20 08:22:00,48.2,45.4,29.46,SSW,194,3.0,9.0,90,0.00,,,0.41,Wunderground v.1.15,2013-03-20 15:22:00,
2013-03-20 08:27:00,48.4,45.9,29.46,SSW,194,2.0,10.0,91,0.00,,,0.42,Wunderground v.1.15,2013-03-20 15:27:00,
2013-03-20 08:33:00,48.8,46.3,29.46,South,186,3.0,14.0,91,0.00,,,0.42,Wunderground v.1.15,2013-03-20 15:33:00,
2013-03-20 08:38:00,49.2,46.7,29.46,South,191,11.0,14.0,91,0.00,,,0.42,Wunderground v.1.15,2013-03-20 15:38:00,
2013-03-20 08:43:00,49.4,46.9,29.46,SSE,163,2.0,12.0,91,0.00,,,0.42,Wunderground v.1.15,2013-03-20 15:43:00,
2013-03-20 08:48:00,49.6,47.1,29.46,WSW,240,4.0,17.0,91,0.00,,,0.42,Wunderground v.1.15,2013-03-20 15:48:00,
2013-03-20 08:53:00,49.9,47.4,29.46,SSW,198,4.0,12.0,91,0.00,,,0.43,Wunderground v.1.15,2013-03-20 15:53:00,
2013-03-20 08:58:00,50.1,47.3,29.46,SW,214,6.0,13.0,90,0.00,,,0.43,Wunderground v.1.15,2013-03-20 15:58:00,
2013-03-20 09:03:00,50.2,47.4,29.46,SSW,202,9.0,14.0,90,0.00,,,0.43,Wunderground v.1.15,2013-03-20 16:03:00,
2013-03-20 09:08:00,50.2,47.4,29.47,SE,134,6.0,14.0,90,0.00,,,0.43,Wunderground v.1.15,2013-03-20 16:08:00,
2013-03-20 09:13:00,50.3,47.5,29.47,SSW,195,5.0,13.0,90,0.00,,,0.44,Wunderground v.1.15,2013-03-20 16:13:00,
2013-03-20 09:18:00,50.2,47.4,29.47,SSW,198,5.0,13.0,90,0.35,,,0.46,Wunderground v.1.15,2013-03-20 16:18:00,
2013-03-20 09:23:00,50.0,47.2,29.47,SW,216,3.0,14.0,90,0.48,,,0.50,Wunderground v.1.15,2013-03-20 16:23:00,
2013-03-20 09:28:00,49.9,47.4,29.48,SW,217,9.0,14.0,91,0.13,,,0.51,Wunderground v.1.15,2013-03-20 16:28:00,
2013-03-20 09:33:00,50.3,47.5,29.48,SE,132,14.0,20.0,90,0.06,,,0.51,Wunderground v.1.15,2013-03-20 16:33:00,
2013-03-20 09:38:00,50.4,47.3,29.49,WNW,299,9.0,24.0,89,0.04,,,0.51,Wunderground v.1.15,2013-03-20 16:38:00,
2013-03-20 09:43:00,50.3,46.9,29.49,South,186,11.0,17.0,88,0.00,,,0.51,Wunderground v.1.15,2013-03-20 16:43:00,
2013-03-20 09:48:00,50.0,46.6,29.49,SW,234,7.0,24.0,88,0.00,,,0.51,Wunderground v.1.15,2013-03-20 16:48:00,
2013-03-20 09:53:00,49.7,45.4,29.50,SW,225,5.0,21.0,85,0.00,,,0.51,Wunderground v.1.15,2013-03-20 16:53:00,
2013-03-20 09:58:00,49.1,44.5,29.51,West,266,15.0,27.0,84,0.00,,,0.51,Wunderground v.1.15,2013-03-20 16:58:00,
2013-03-20 10:03:00,49.1,43.5,29.51,SE,137,14.0,22.0,81,0.00,,,0.51,Wunderground v.1.15,2013-03-20 17:03:00,
2013-03-20 10:08:00,49.3,43.7,29.51,SSW,192,9.0,24.0,81,0.00,,,0.52,Wunderground v.1.15,2013-03-20 17:08:00,
2013-03-20 10:14:00,49.5,43.9,29.53,WSW,249,11.0,23.0,81,0.00,,,0.52,Wunderground v.1.15,2013-03-20 17:14:00,
2013-03-20 10:19:00,49.5,43.6,29.53,NNW,328,13.0,24.0,80,0.00,,,0.52,Wunderground v.1.15,2013-03-20 17:19:00,
2013-03-20 10:24:00,49.4,43.8,29.54,SSW,195,11.0,31.0,81,0.00,,,0.52,Wunderground v.1.15,2013-03-20 17:24:00,
2013-03-20 10:29:00,49.5,43.6,29.55,ENE,73,14.0,31.0,80,0.00,,,0.52,Wunderground v.1.15,2013-03-20 17:29:00,
2013-03-20 10:34:00,49.3,43.4,29.55,WSW,248,27.0,29.0,80,0.00,,,0.52,Wunderground v.1.15,2013-03-20 17:34:00,
2013-03-20 10:39:00,49.4,43.5,29.56,SW,236,11.0,29.0,80,0.00,,,0.52,Wunderground v.1.15,2013-03-20 17:39:00,
2013-03-20 10:44:00,49.7,42.8,29.56,SSW,202,14.0,28.0,77,0.00,,,0.52,Wunderground v.1.15,2013-03-20 17:44:00,
2013-03-20 10:49:00,49.7,42.8,29.56,WSW,250,23.0,28.0,77,0.00,,,0.52,Wunderground v.1.15,2013-03-20 17:49:00,
2013-03-20 10:54:00,49.8,42.5,29.57,East,98,12.0,22.0,76,0.00,,,0.52,Wunderground v.1.15,2013-03-20 17:54:00,
2013-03-20 10:59:00,49.9,43.0,29.57,SSW,201,13.0,22.0,77,0.00,,,0.52,Wunderground v.1.15,2013-03-20 17:59:00,
2013-03-20 11:04:00,50.0,42.7,29.57,South,171,12.0,19.0,76,0.00,,,0.52,Wunderground v.1.15,2013-03-20 18:04:00,
2013-03-20 11:09:00,49.9,43.0,29.58,South,187,20.0,20.0,77,0.00,,,0.52,Wunderground v.1.15,2013-03-20 18:09:00,
2013-03-20 11:14:00,50.2,42.9,29.58,West,271,12.0,24.0,76,0.00,,,0.52,Wunderground v.1.15,2013-03-20 18:14:00,
2013-03-20 11:19:00,50.1,42.8,29.58,SSE,167,7.0,24.0,76,0.00,,,0.52,Wunderground v.1.15,2013-03-20 18:19:00,
2013-03-20 11:24:00,49.9,42.3,29.59,SW,234,29.0,29.0,75,0.00,,,0.52,Wunderground v.1.15,2013-03-20 18:24:00,
2013-03-20 11:29:00,49.8,42.2,29.59,South,188,12.0,29.0,75,0.00,,,0.52,Wunderground v.1.15,2013-03-20 18:29:00,
2013-03-20 11:34:00,50.2,42.2,29.59,WSW,249,13.0,21.0,74,0.00,,,0.52,Wunderground v.1.15,2013-03-20 18:34:00,
2013-03-20 11:39:00,50.0,42.4,29.60,SW,230,10.0,13.0,75,0.00,,,0.52,Wunderground v.1.15,2013-03-20 18:39:00,
2013-03-20 11:44:00,50.1,42.8,29.60,South,169,6.0,21.0,76,0.00,,,0.52,Wunderground v.1.15,2013-03-20 18:44:00,
2013-03-20 11:49:00,50.1,42.1,29.61,SW,232,10.0,11.0,74,0.00,,,0.52,Wunderground v.1.15,2013-03-20 18:49:00,
2013-03-20 11:54:00,49.9,42.3,29.61,SW,231,12.0,18.0,75,0.00,,,0.52,Wunderground v.1.15,2013-03-20 18:54:00,
2013-03-20 11:59:00,50.3,42.0,29.61,SW,217,4.0,10.0,73,0.00,,,0.52,Wunderground v.1.15,2013-03-20 18:59:00,
2013-03-20 12:04:00,50.9,42.2,29.62,NE,55,11.0,23.0,72,0.00,,,0.52,Wunderground v.1.15,2013-03-20 19:04:00,
2013-03-20 12:09:00,50.9,41.8,29.62,SSW,213,15.0,15.0,71,0.00,,,0.52,Wunderground v.1.15,2013-03-20 19:09:00,
2013-03-20 12:14:00,51.0,41.9,29.62,West,277,7.0,23.0,71,0.00,,,0.52,Wunderground v.1.15,2013-03-20 19:14:00,
2013-03-20 12:19:00,51.4,41.6,29.63,SW,221,17.0,17.0,69,0.00,,,0.52,Wunderground v.1.15,2013-03-20 19:19:00,
2013-03-20 12:24:00,51.0,41.6,29.64,WSW,254,15.0,24.0,70,0.00,,,0.52,Wunderground v.1.15,2013-03-20 19:24:00,
2013-03-20 12:29:00,50.6,41.2,29.64,SSW,204,12.0,12.0,70,0.00,,,0.52,Wunderground v.1.15,2013-03-20 19:29:00,
2013-03-20 12:34:00,50.3,42.0,29.64,SW,233,12.0,21.0,73,0.00,,,0.52,Wunderground v.1.15,2013-03-20 19:34:00,
2013-03-20 12:39:00,49.9,40.9,29.66,NNW,327,6.0,9.0,71,0.00,,,0.52,Wunderground v.1.15,2013-03-20 19:39:00,
2013-03-20 12:44:00,49.4,40.0,29.66,SW,219,11.0,20.0,70,0.00,,,0.52,Wunderground v.1.15,2013-03-20 19:44:00,
2013-03-20 12:49:00,48.8,39.4,29.66,South,171,16.0,16.0,70,0.00,,,0.52,Wunderground v.1.15,2013-03-20 19:49:00,
2013-03-20 12:54:00,48.1,39.9,29.65,ESE,114,5.0,20.0,73,0.00,,,0.52,Wunderground v.1.15,2013-03-20 19:54:00,
2013-03-20 12:59:00,47.3,39.8,29.66,SSW,199,15.0,15.0,75,0.00,,,0.52,Wunderground v.1.15,2013-03-20 19:59:00,
2013-03-20 13:05:00,46.8,39.6,29.66,SW,223,9.0,25.0,76,0.00,,,0.52,Wunderground v.1.15,2013-03-20 20:05:00,
2013-03-20 13:10:00,47.7,40.5,29.66,ESE,107,18.0,19.0,76,0.00,,,0.52,Wunderground v.1.15,2013-03-20 20:10:00,
2013-03-20 13:15:00,47.8,40.6,29.67,North,360,5.0,24.0,76,0.00,,,0.52,Wunderground v.1.15,2013-03-20 20:15:00,
2013-03-20 13:20:00,48.7,41.5,29.67,SSW,201,14.0,15.0,76,0.00,,,0.52,Wunderground v.1.15,2013-03-20 20:20:00,
2013-03-20 13:25:00,48.9,41.7,29.67,SSW,204,11.0,19.0,76,0.00,,,0.52,Wunderground v.1.15,2013-03-20 20:25:00,
2013-03-20 13:30:00,49.7,42.1,29.67,South,175,12.0,12.0,75,0.00,,,0.52,Wunderground v.1.15,2013-03-20 20:30:00,
2013-03-20 13:35:00,49.8,41.8,29.67,West,275,14.0,25.0,74,0.00,,,0.52,Wunderground v.1.15,2013-03-20 20:35:00,
2013-03-20 13:40:00,49.8,42.2,29.67,SSW,199,8.0,12.0,75,0.00,,,0.52,Wunderground v.1.15,2013-03-20 20:40:00,
2013-03-20 13:45:00,49.8,41.5,29.68,SW,217,23.0,30.0,73,0.00,,,0.52,Wunderground v.1.15,2013-03-20 20:45:00,
2013-03-20 13:50:00,49.8,41.1,29.68,SSW,197,17.0,17.0,72,0.00,,,0.52,Wunderground v.1.15,2013-03-20 20:50:00,
2013-03-20 13:55:00,49.5,41.2,29.68,SSW,209,5.0,22.0,73,0.00,,,0.52,Wunderground v.1.15,2013-03-20 20:55:00,
2013-03-20 14:00:00,49.5,41.6,29.68,North,10,7.0,22.0,74,0.00,,,0.52,Wunderground v.1.15,2013-03-20 21:00:00,
2013-03-20 14:05:00,49.4,41.5,29.68,SSW,208,13.0,30.0,74,0.00,,,0.52,Wunderground v.1.15,2013-03-20 21:05:00,
2013-03-20 14:10:00,49.3,41.4,29.68,SW,226,11.0,19.0,74,0.00,,,0.52,Wunderground v.1.15,2013-03-20 21:10:00,
2013-03-20 14:15:00,49.5,41.2,29.68,SW,232,5.0,24.0,73,0.00,,,0.52,Wunderground v.1.15,2013-03-20 21:15:00,
2013-03-20 14:20:00,49.7,41.4,29.68,SSW,200,11.0,23.0,73,0.00,,,0.52,Wunderground v.1.15,2013-03-20 21:20:00,
2013-03-20 14:25:00,49.7,41.4,29.68,SW,218,16.0,24.0,73,0.00,,,0.52,Wunderground v.1.15,2013-03-20 21:25:00,
2013-03-20 14:30:00,49.5,41.2,29.68,SW,232,22.0,22.0,73,0.00,,,0.52,Wunderground v.1.15,2013-03-20 21:30:00,
2013-03-20 14:35:00,49.6,40.9,29.68,SE,130,12.0,22.0,72,0.00,,,0.52,Wunderground v.1.15,2013-03-20 21:35:00,
2013-03-20 14:40:00,49.4,41.1,29.68,SW,215,15.0,25.0,73,0.00,,,0.52,Wunderground v.1.15,2013-03-20 21:40:00,
2013-03-20 14:45:00,48.8,40.5,29.68,West,271,11.0,29.0,73,0.00,,,0.52,Wunderground v.1.15,2013-03-20 21:45:00,
2013-03-20 14:50:00,49.1,41.2,29.68,South,189,11.0,18.0,74,0.00,,,0.52,Wunderground v.1.15,2013-03-20 21:50:00,
2013-03-20 14:55:00,49.4,40.7,29.68,West,268,16.0,21.0,72,0.00,,,0.52,Wunderground v.1.15,2013-03-20 21:55:00,
2013-03-20 15:00:00,49.5,40.5,29.68,West,269,10.0,20.0,71,0.00,,,0.52,Wunderground v.1.15,2013-03-20 22:00:00,
2013-03-20 15:05:00,49.4,40.7,29.69,West,281,18.0,26.0,72,0.00,,,0.52,Wunderground v.1.15,2013-03-20 22:05:00,
2013-03-20 15:10:00,49.2,40.6,29.70,SW,218,11.0,17.0,72,0.00,,,0.52,Wunderground v.1.15,2013-03-20 22:10:00,
2013-03-20 15:15:00,49.2,40.6,29.70,South,179,18.0,28.0,72,0.00,,,0.52,Wunderground v.1.15,2013-03-20 22:15:00,
2013-03-20 15:20:00,49.1,40.8,29.70,West,268,19.0,19.0,73,0.00,,,0.52,Wunderground v.1.15,2013-03-20 22:20:00,
2013-03-20 15:25:00,48.9,40.3,29.71,SSW,213,4.0,26.0,72,0.00,,,0.52,Wunderground v.1.15,2013-03-20 22:25:00,
2013-03-20 15:30:00,48.7,40.1,29.71,West,262,12.0,27.0,72,0.00,,,0.52,Wunderground v.1.15,2013-03-20 22:30:00,
2013-03-20 15:35:00,48.5,39.9,29.71,WSW,242,12.0,27.0,72,0.00,,,0.52,Wunderground v.1.15,2013-03-20 22:35:00,
2013-03-20 15:40:00,48.4,39.8,29.71,SW,235,13.0,15.0,72,0.00,,,0.52,Wunderground v.1.15,2013-03-20 22:40:00,
2013-03-20 15:45:00,48.8,40.2,29.71,ESE,105,16.0,21.0,72,0.00,,,0.52,Wunderground v.1.15,2013-03-20 22:45:00,
2013-03-20 15:50:00,48.9,40.3,29.71,SW,236,9.0,21.0,72,0.00,,,0.52,Wunderground v.1.15,2013-03-20 22:50:00,
2013-03-20 15:55:00,49.2,39.8,29.72,SW,215,6.0,28.0,70,0.00,,,0.52,Wunderground v.1.15,2013-03-20 22:55:00,
2013-03-20 16:00:00,49.7,39.9,29.72,SSW,207,21.0,21.0,69,0.00,,,0.52,Wunderground v.1.15,2013-03-20 23:00:00,
2013-03-20 16:05:00,49.7,40.3,29.72,WSW,250,10.0,23.0,70,0.00,,,0.52,Wunderground v.1.15,2013-03-20 23:05:00,
2013-03-20 16:11:00,49.8,40.0,29.72,WSW,246,21.0,21.0,69,0.00,,,0.52,Wunderground v.1.15,2013-03-20 23:11:00,
2013-03-20 16:15:00,49.9,39.8,29.72,SSE,151,14.0,21.0,68,0.00,,,0.52,Wunderground v.1.15,2013-03-20 23:15:00,
2013-03-20 16:21:00,49.6,39.1,29.73,WSW,254,7.0,19.0,67,0.00,,,0.52,Wunderground v.1.15,2013-03-20 23:21:00,
2013-03-20 16:26:00,49.7,39.2,29.73,East,99,12.0,19.0,67,0.00,,,0.52,Wunderground v.1.15,2013-03-20 23:26:00,
2013-03-20 16:31:00,49.7,39.2,29.74,SSW,213,9.0,19.0,67,0.00,,,0.52,Wunderground v.1.15,2013-03-20 23:31:00,
2013-03-20 16:36:00,49.3,38.4,29.74,West,261,14.0,24.0,66,0.00,,,0.52,Wunderground v.1.15,2013-03-20 23:36:00,
2013-03-20 16:41:00,49.1,38.2,29.74,SW,221,5.0,15.0,66,0.00,,,0.52,Wunderground v.1.15,2013-03-20 23:41:00,
2013-03-20 16:46:00,48.9,38.4,29.75,WSW,238,16.0,23.0,67,0.00,,,0.52,Wunderground v.1.15,2013-03-20 23:46:00,
2013-03-20 16:51:00,48.9,38.8,29.75,West,281,6.0,17.0,68,0.00,,,0.52,Wunderground v.1.15,2013-03-20 23:51:00,
2013-03-20 16:56:00,49.6,39.8,29.75,ESE,106,2.0,20.0,69,0.00,,,0.52,Wunderground v.1.15,2013-03-20 23:56:00,
2013-03-20 17:01:00,49.9,39.4,29.76,North,355,9.0,20.0,67,0.00,,,0.52,Wunderground v.1.15,2013-03-21 00:01:00,
2013-03-20 17:06:00,49.9,39.4,29.76,NW,317,4.0,23.0,67,0.00,,,0.52,Wunderground v.1.15,2013-03-21 00:06:00,
2013-03-20 17:11:00,49.9,39.4,29.76,NW,323,2.0,17.0,67,0.00,,,0.52,Wunderground v.1.15,2013-03-21 00:11:00,
2013-03-20 17:16:00,49.6,39.5,29.76,West,274,14.0,19.0,68,0.00,,,0.52,Wunderground v.1.15,2013-03-21 00:16:00,
2013-03-20 17:21:00,49.3,39.2,29.76,West,273,15.0,22.0,68,0.00,,,0.52,Wunderground v.1.15,2013-03-21 00:21:00,
2013-03-20 17:27:00,49.2,38.7,29.76,South,187,15.0,22.0,67,0.00,,,0.52,Wunderground v.1.15,2013-03-21 00:27:00,
2013-03-20 17:32:00,49.2,38.3,29.76,WSW,238,11.0,16.0,66,0.00,,,0.52,Wunderground v.1.15,2013-03-21 00:32:00,
2013-03-20 17:37:00,49.4,38.1,29.77,West,270,7.0,21.0,65,0.00,,,0.52,Wunderground v.1.15,2013-03-21 00:37:00,
2013-03-20 17:42:00,49.4,38.1,29.77,SSW,209,13.0,19.0,65,0.00,,,0.52,Wunderground v.1.15,2013-03-21 00:42:00,
2013-03-20 17:47:00,49.2,38.7,29.78,WSW,248,11.0,19.0,67,0.00,,,0.52,Wunderground v.1.15,2013-03-21 00:47:00,
2013-03-20 17:52:00,48.8,38.3,29.78,SE,130,10.0,15.0,67,0.00,,,0.52,Wunderground v.1.15,2013-03-21 00:52:00,
2013-03-20 17:57:00,48.5,38.4,29.79,WSW,237,10.0,16.0,68,0.00,,,0.52,Wunderground v.1.15,2013-03-21 00:57:00,
2013-03-20 18:02:00,48.0,38.3,29.79,South,185,7.0,15.0,69,0.00,,,0.52,Wunderground v.1.15,2013-03-21 01:02:00,
2013-03-20 18:07:00,47.6,37.9,29.80,SW,232,6.0,17.0,69,0.00,,,0.52,Wunderground v.1.15,2013-03-21 01:07:00,
2013-03-20 18:12:00,47.2,37.5,29.80,SW,235,3.0,18.0,69,0.00,,,0.52,Wunderground v.1.15,2013-03-21 01:12:00,
2013-03-20 18:17:00,46.9,37.6,29.81,SW,229,10.0,18.0,70,0.00,,,0.52,Wunderground v.1.15,2013-03-21 01:17:00,
2013-03-20 18:22:00,46.7,37.8,29.81,SSW,193,10.0,17.0,71,0.00,,,0.52,Wunderground v.1.15,2013-03-21 01:22:00,
2013-03-20 18:27:00,46.6,37.3,29.81,WNW,292,11.0,17.0,70,0.00,,,0.52,Wunderground v.1.15,2013-03-21 01:27:00,
2013-03-20 18:32:00,46.5,36.9,29.82,ESE,102,9.0,24.0,69,0.00,,,0.52,Wunderground v.1.15,2013-03-21 01:32:00,
2013-03-20 18:37:00,46.4,36.8,29.82,NW,304,10.0,24.0,69,0.00,,,0.52,Wunderground v.1.15,2013-03-21 01:37:00,
2013-03-20 18:42:00,46.4,36.8,29.83,SSW,211,6.0,16.0,69,0.00,,,0.52,Wunderground v.1.15,2013-03-21 01:42:00,
2013-03-20 18:47:00,46.4,36.8,29.84,West,273,6.0,16.0,69,0.00,,,0.52,Wunderground v.1.15,2013-03-21 01:47:00,
2013-03-20 18:52:00,46.1,36.9,29.84,WSW,244,6.0,11.0,70,0.00,,,0.52,Wunderground v.1.15,2013-03-21 01:52:00,
2013-03-20 18:57:00,45.7,36.5,29.84,WSW,252,5.0,19.0,70,0.00,,,0.52,Wunderground v.1.15,2013-03-21 01:57:00,
2013-03-20 19:02:00,45.4,36.5,29.85,WNW,294,6.0,17.0,71,0.00,,,0.52,Wunderground v.1.15,2013-03-21 02:02:00,
2013-03-20 19:07:00,45.0,36.5,29.85,NNW,337,13.0,18.0,72,0.00,,,0.52,Wunderground v.1.15,2013-03-21 02:07:00,
2013-03-20 19:12:00,44.9,36.4,29.85,SSW,211,7.0,17.0,72,0.00,,,0.52,Wunderground v.1.15,2013-03-21 02:12:00,
2013-03-20 19:17:00,44.7,35.9,29.85,SE,139,14.0,17.0,71,0.00,,,0.52,Wunderground v.1.15,2013-03-21 02:17:00,
2013-03-20 19:22:00,44.6,35.4,29.86,SW,222,11.0,23.0,70,0.00,,,0.52,Wunderground v.1.15,2013-03-21 02:22:00,
2013-03-20 19:27:00,44.5,35.3,29.86,SW,225,12.0,23.0,70,0.00,,,0.52,Wunderground v.1.15,2013-03-21 02:27:00,
2013-03-20 19:32:00,44.3,35.1,29.87,SW,224,14.0,15.0,70,0.00,,,0.52,Wunderground v.1.15,2013-03-21 02:32:00,
2013-03-20 19:38:00,44.1,34.9,29.87,SW,234,6.0,16.0,70,0.00,,,0.52,Wunderground v.1.15,2013-03-21 02:38:00,
2013-03-20 19:43:00,43.8,34.6,29.88,SSW,205,15.0,20.0,70,0.00,,,0.52,Wunderground v.1.15,2013-03-21 02:43:00,
2013-03-20 19:48:00,43.6,34.5,29.88,SW,218,6.0,20.0,70,0.00,,,0.52,Wunderground v.1.15,2013-03-21 02:48:00,
2013-03-20 19:53:00,43.4,34.3,29.89,SW,234,14.0,18.0,70,0.00,,,0.52,Wunderground v.1.15,2013-03-21 02:53:00,
2013-03-20 19:58:00,43.2,34.1,29.90,SSW,202,0.0,18.0,70,0.00,,,0.52,Wunderground v.1.15,2013-03-21 02:58:00,
2013-03-20 20:03:00,43.0,34.2,29.91,SSW,202,4.0,14.0,71,0.00,,,0.52,Wunderground v.1.15,2013-03-21 03:03:00,
2013-03-20 20:08:00,42.8,34.0,29.91,SW,232,6.0,14.0,71,0.00,,,0.52,Wunderground v.1.15,2013-03-21 03:08:00,
2013-03-20 20:13:00,42.7,33.9,29.92,WSW,257,14.0,14.0,71,0.00,,,0.52,Wunderground v.1.15,2013-03-21 03:13:00,
2013-03-20 20:18:00,42.6,33.9,29.92,SSE,155,2.0,17.0,71,0.00,,,0.52,Wunderground v.1.15,2013-03-21 03:18:00,
2013-03-20 20:23:00,42.5,34.1,29.93,SW,219,4.0,18.0,72,0.00,,,0.52,Wunderground v.1.15,2013-03-21 03:23:00,
2013-03-20 20:28:00,42.4,34.0,29.93,South,183,6.0,18.0,72,0.00,,,0.52,Wunderground v.1.15,2013-03-21 03:28:00,
2013-03-20 20:33:00,42.3,33.9,29.94,SSW,212,9.0,15.0,72,0.00,,,0.52,Wunderground v.1.15,2013-03-21 03:33:00,
2013-03-20 20:38:00,42.2,34.2,29.95,SW,219,6.0,16.0,73,0.00,,,0.52,Wunderground v.1.15,2013-03-21 03:38:00,
2013-03-20 20:43:00,42.0,34.0,29.95,WNW,297,0.0,13.0,73,0.00,,,0.52,Wunderground v.1.15,2013-03-21 03:43:00,
2013-03-20 20:48:00,41.9,33.9,29.95,SW,234,9.0,13.0,73,0.00,,,0.52,Wunderground v.1.15,2013-03-21 03:48:00,
2013-03-20 20:53:00,41.9,33.9,29.96,SW,227,7.0,12.0,73,0.00,,,0.52,Wunderground v.1.15,2013-03-21 03:53:00,
2013-03-20 20:58:00,41.8,34.1,29.97,SSW,194,6.0,16.0,74,0.00,,,0.52,Wunderground v.1.15,2013-03-21 03:58:00,
2013-03-20 21:00:00,41.8,34.1,29.96,NNW,338,3.0,15.0,74,0.00,,,0.52,Wunderground v.1.15,2013-03-21 04:00:00,
2013-03-20 21:02:00,41.9,34.2,29.97,SW,234,3.0,15.0,74,0.00,,,0.52,Wunderground v.1.15,2013-03-21 04:02:00,
2013-03-20 21:07:00,41.9,34.2,29.98,WNW,293,8.0,17.0,74,0.00,,,0.52,Wunderground v.1.15,2013-03-21 04:07:00,
2013-03-20 21:12:00,41.9,34.2,29.99,WSW,244,6.0,9.0,74,0.00,,,0.52,Wunderground v.1.15,2013-03-21 04:12:00,
2013-03-20 21:17:00,41.9,34.2,29.99,WNW,292,1.0,10.0,74,0.00,,,0.52,Wunderground v.1.15,2013-03-21 04:17:00,
2013-03-20 21:22:00,41.9,34.2,30.00,NW,311,9.0,14.0,74,0.00,,,0.52,Wunderground v.1.15,2013-03-21 04:22:00,
2013-03-20 21:27:00,41.8,34.5,30.01,West,269,9.0,14.0,75,0.00,,,0.52,Wunderground v.1.15,2013-03-21 04:27:00,
2013-03-20 21:32:00,41.7,34.7,30.01,West,263,1.0,9.0,76,0.00,,,0.52,Wunderground v.1.15,2013-03-21 04:32:00,
2013-03-20 21:37:00,41.6,34.9,30.01,West,272,4.0,9.0,77,0.00,,,0.52,Wunderground v.1.15,2013-03-21 04:37:00,
2013-03-20 21:42:00,41.4,34.7,30.02,WSW,240,3.0,9.0,77,0.00,,,0.52,Wunderground v.1.15,2013-03-21 04:42:00,
2013-03-20 21:47:00,41.3,34.6,30.03,WNW,287,10.0,10.0,77,0.00,,,0.52,Wunderground v.1.15,2013-03-21 04:47:00,
2013-03-20 21:52:00,41.2,34.9,30.03,NNW,330,0.0,8.0,78,0.00,,,0.52,Wunderground v.1.15,2013-03-21 04:52:00,
2013-03-20 21:57:00,40.6,34.9,30.03,North,360,0.0,8.0,80,0.00,,,0.52,Wunderground v.1.15,2013-03-21 04:57:00,
2013-03-20 22:02:00,40.0,34.6,30.04,NNE,33,7.0,9.0,81,0.00,,,0.52,Wunderground v.1.15,2013-03-21 05:02:00,
2013-03-20 22:07:00,39.6,34.9,30.04,East,96,0.0,9.0,83,0.00,,,0.52,Wunderground v.1.15,2013-03-21 05:07:00,
2013-03-20 22:12:00,39.1,34.7,30.04,East,89,5.0,5.0,84,0.00,,,0.52,Wunderground v.1.15,2013-03-21 05:12:00,
2013-03-20 22:18:00,38.5,34.4,30.04,East,94,6.0,9.0,85,0.00,,,0.52,Wunderground v.1.15,2013-03-21 05:18:00,
2013-03-20 22:23:00,38.1,34.3,30.04,ENE,76,6.0,9.0,86,0.00,,,0.53,Wunderground v.1.15,2013-03-21 05:23:00,
2013-03-20 22:28:00,38.1,34.3,30.05,South,191,0.0,9.0,86,0.00,,,0.53,Wunderground v.1.15,2013-03-21 05:28:00,
2013-03-20 22:33:00,38.4,34.6,30.05,ESE,111,2.0,4.0,86,0.05,,,0.54,Wunderground v.1.15,2013-03-21 05:33:00,
2013-03-20 22:38:00,38.0,34.5,30.05,ESE,114,4.0,8.0,87,0.05,,,0.54,Wunderground v.1.15,2013-03-21 05:38:00,
2013-03-20 22:43:00,37.9,34.4,30.06,South,179,0.0,3.0,87,0.05,,,0.54,Wunderground v.1.15,2013-03-21 05:43:00,
2013-03-20 22:48:00,38.0,34.5,30.06,South,171,0.0,3.0,87,0.04,,,0.54,Wunderground v.1.15,2013-03-21 05:48:00,
2013-03-20 22:53:00,38.6,35.1,30.06,SSW,196,0.0,2.0,87,0.04,,,0.55,Wunderground v.1.15,2013-03-21 05:53:00,
2013-03-20 22:58:00,38.8,35.3,30.06,SSW,205,0.0,4.0,87,0.04,,,0.55,Wunderground v.1.15,2013-03-21 05:58:00,
2013-03-20 23:03:00,39.1,34.7,30.06,SSW,209,0.0,6.0,84,0.04,,,0.55,Wunderground v.1.15,2013-03-21 06:03:00,
2013-03-20 23:08:00,39.5,34.5,30.06,SW,225,4.0,6.0,82,0.00,,,0.55,Wunderground v.1.15,2013-03-21 06:08:00,
2013-03-20 23:13:00,39.7,34.0,30.06,SSW,200,0.0,7.0,80,0.00,,,0.55,Wunderground v.1.15,2013-03-21 06:13:00,
2013-03-20 23:18:00,39.8,33.5,30.06,SE,139,3.0,10.0,78,0.00,,,0.55,Wunderground v.1.15,2013-03-21 06:18:00,
2013-03-20 23:23:00,40.0,33.4,30.07,SSW,196,2.0,10.0,77,0.00,,,0.55,Wunderground v.1.15,2013-03-21 06:23:00,
2013-03-20 23:28:00,40.0,33.4,30.07,SSW,206,6.0,10.0,77,0.00,,,0.55,Wunderground v.1.15,2013-03-21 06:28:00,
2013-03-20 23:33:00,40.1,33.1,30.06,WSW,253,3.0,10.0,76,0.00,,,0.55,Wunderground v.1.15,2013-03-21 06:33:00,
2013-03-20 23:38:00,40.1,33.5,30.07,SSW,194,7.0,11.0,77,0.00,,,0.55,Wunderground v.1.15,2013-03-21 06:38:00,
2013-03-20 23:43:00,40.0,33.7,30.07,SSW,213,6.0,14.0,78,0.00,,,0.55,Wunderground v.1.15,2013-03-21 06:43:00,
2013-03-20 23:48:00,39.8,33.5,30.07,West,263,5.0,14.0,78,0.00,,,0.55,Wunderground v.1.15,2013-03-21 06:48:00,
2013-03-20 23:53:00,39.7,33.4,30.07,WSW,240,3.0,13.0,78,0.00,,,0.55,Wunderground v.1.15,2013-03-21 06:53:00,
2013-03-20 23:58:00,39.6,33.6,30.08,SSW,207,6.0,13.0,79,0.00,,,0.55,Wunderground v.1.15,2013-03-21 06:58:00,